Theta_e
332 332 332 332 332 332 332 331 331 332 331 328 327 326 325 324 323 323 324 321 320 317 319 320 320 322 323 322 323 324 325 327 329 330 330 331 331 326 325 328 332 334 336 338 340 339 338 337 336 336 337 336 334 334 333 332 332 331 331 330 330 330 329 329 328 328 328 328 328 327 327 327 327 326 326 326 326 325 325 325 324 324 323 323 322
331 331 331 331 331 332 332 329 329 329 330 328 327 326 324 324 322 322 322 321 320 318 318 317 318 318 321 321 322 323 323 326 329 328 328 329 329 325 322 325 329 333 334 335 337 337 338 337 335 335 335 335 334 334 332 332 332 331 330 330 330 329 329 328 328 328 328 327 327 327 327 326 326 326 325 325 325 324 324 324 323 323 322 321 321
329 329 331 330 331 331 332 331 328 328 328 328 327 327 324 324 323 322 321 320 318 318 318 316 316 317 316 320 321 322 322 323 327 327 325 325 326 326 324 321 326 330 331 332 335 336 337 336 335 334 334 334 334 333 332 331 331 330 330 330 330 329 328 328 328 327 327 327 327 326 326 325 325 325 324 324 324 323 323 323 322 322 322 322 321
330 329 330 330 330 329 330 329 326 328 328 326 325 326 325 325 324 323 322 320 318 318 319 317 316 315 315 315 317 319 321 322 324 325 325 323 324 325 325 325 321 325 328 332 333 333 334 334 334 334 334 333 334 332 333 331 330 330 331 331 330 330 328 328 327 327 327 326 326 326 325 324 323 323 322 323 322 322 322 322 322 322 321 322 322
329 331 330 330 330 329 328 327 326 327 328 326 325 324 324 323 322 322 321 321 319 317 317 318 316 314 314 314 316 318 320 322 321 322 323 324 324 324 325 326 326 319 322 326 331 332 332 332 332 332 332 332 333 333 332 331 330 331 331 330 329 329 328 328 327 326 326 326 325 324 324 323 323 323 322 322 321 321 321 321 321 321 321 321 321
328 331 329 330 329 328 328 328 327 327 327 325 324 324 322 321 321 320 317 319 319 317 317 316 316 315 314 314 315 317 318 318 318 319 321 322 324 324 323 325 325 325 325 320 323 327 330 332 331 331 331 331 331 332 332 331 331 331 330 329 328 329 329 327 326 326 324 323 323 322 323 323 322 322 321 321 321 321 321 321 321 322 321 321 321
328 330 325 326 328 327 327 327 327 326 325 324 323 322 322 320 319 319 318 319 319 317 317 316 315 314 315 315 317 318 319 317 317 316 319 320 322 323 322 323 324 324 324 324 315 320 326 330 330 330 330 330 330 331 331 330 331 330 329 328 328 327 327 327 325 325 324 323 323 322 322 322 322 321 321 321 321 321 321 321 321 321 322 321 321
327 327 325 326 327 327 326 327 327 324 322 323 322 321 320 319 319 319 317 317 317 316 317 315 315 314 314 315 317 317 318 316 315 315 318 320 321 322 323 323 323 323 319 322 322 320 321 325 328 329 329 329 329 330 330 330 330 329 328 328 328 328 326 326 325 325 324 322 322 321 321 321 321 321 321 322 321 321 322 322 322 322 321 321 321
327 326 324 325 326 326 326 326 326 324 322 322 321 321 320 318 318 318 318 316 315 315 315 314 314 314 314 315 317 317 315 315 314 313 314 319 320 321 322 322 320 314 322 322 322 322 319 322 325 326 324 327 328 329 329 330 329 330 329 327 327 326 325 324 324 323 322 322 321 321 321 321 322 322 321 322 322 322 322 321 321 321 321 322 321
325 327 325 324 327 326 326 325 323 323 323 322 321 321 320 318 316 317 317 316 315 314 314 314 314 314 313 314 315 316 314 311 311 311 317 320 321 321 321 322 321 322 322 323 322 322 322 320 320 320 317 323 328 328 328 328 328 329 328 326 325 325 324 323 323 322 322 321 321 322 322 322 321 321 321 321 321 321 321 321 321 321 321 321 321
325 325 325 324 325 326 326 323 322 323 322 321 320 319 318 318 316 316 317 316 315 315 315 315 314 314 313 314 315 313 312 309 308 310 315 318 321 321 322 322 322 322 322 321 321 322 322 322 320 320 320 320 326 327 327 327 326 326 326 326 326 326 325 324 323 323 322 322 322 322 322 322 322 322 321 321 321 321 320 320 320 321 321 321 322
325 325 326 323 324 324 323 323 321 322 321 320 319 318 317 317 316 316 316 315 316 316 315 314 313 312 309 309 310 310 309 308 308 309 311 314 317 319 321 321 322 322 321 321 321 322 321 320 317 320 321 320 321 323 326 325 324 326 326 327 327 326 326 324 324 324 324 323 323 323 323 322 322 322 322 321 321 321 321 321 321 322 322 322 322
323 324 324 320 323 324 322 322 322 320 320 319 320 319 319 318 316 315 315 314 314 315 314 314 309 305 307 306 306 308 307 307 308 309 310 310 312 318 319 320 321 321 321 320 320 320 320 319 318 318 319 319 318 317 320 320 319 325 327 327 328 328 327 326 325 325 324 324 324 324 324 323 323 323 323 322 322 322 322 322 322 322 322 323 322
322 324 323 323 322 322 321 320 320 320 319 320 320 317 318 317 315 313 315 313 311 313 313 312 307 304 301 301 302 305 306 307 307 308 308 308 310 315 317 317 319 320 320 319 318 319 319 318 318 318 318 318 319 320 319 318 319 325 327 327 328 328 327 328 326 326 324 324 324 324 324 324 324 324 323 323 323 323 323 323 323 323 323 323 323
323 322 322 323 322 321 320 320 320 320 319 319 319 318 317 315 314 313 311 313 311 312 312 313 308 308 306 303 298 299 301 303 304 305 306 306 308 313 315 316 318 319 319 318 316 318 319 319 318 318 318 318 319 319 319 314 317 315 323 325 327 328 328 328 328 328 326 325 325 325 325 324 324 324 324 324 324 324 324 324 324 324 324 324 324
321 322 321 322 321 320 321 320 320 320 320 319 317 316 317 315 314 313 312 307 309 309 312 313 311 307 302 304 301 302 296 298 300 300 302 304 306 310 312 315 316 316 317 317 316 317 318 319 319 319 319 319 319 320 320 319 313 310 312 316 320 327 328 329 328 329 327 327 326 326 325 325 325 325 325 325 325 326 326 325 325 325 325 325 325
320 324 322 322 321 320 320 319 319 319 319 318 316 316 316 315 314 313 311 309 308 309 310 313 311 312 309 303 299 299 301 300 300 298 301 302 301 306 307 310 313 314 315 316 317 317 317 318 318 319 319 320 319 317 315 314 317 312 313 310 318 323 325 329 329 329 328 328 328 326 326 326 326 326 326 326 326 326 326 325 325 325 325 325 325
315 320 320 320 322 320 319 319 318 317 317 317 317 317 316 315 315 314 312 312 310 308 308 311 312 312 313 308 307 302 301 299 302 293 298 298 297 300 304 306 306 309 312 314 315 316 316 317 317 317 318 317 316 315 315 315 310 314 315 317 318 322 324 326 328 329 328 328 328 327 327 327 327 326 326 326 326 326 326 325 325 325 325 325 324
313 316 320 319 320 320 318 318 318 317 315 316 315 315 316 315 315 314 312 311 311 308 308 309 310 312 312 309 308 307 306 302 302 297 293 296 297 298 299 300 302 304 309 311 313 314 315 316 316 315 314 314 315 315 314 313 310 310 307 307 315 319 322 321 324 326 327 328 328 328 328 327 327 327 326 326 326 326 326 325 325 325 325 326 326
312 314 316 320 318 320 318 318 317 317 314 316 315 315 315 315 314 315 314 312 311 310 309 310 308 309 311 307 307 307 307 308 305 300 297 292 292 296 297 297 299 299 301 307 310 311 312 313 313 312 312 313 313 313 312 311 310 309 306 307 313 317 318 319 320 321 325 326 327 328 328 328 327 327 326 326 326 326 326 326 326 326 325 324 323
308 309 312 318 317 318 317 316 317 315 312 316 316 315 314 314 313 313 311 311 312 312 311 310 311 310 309 306 307 306 307 304 300 297 296 294 293 296 294 296 298 298 298 297 298 304 309 311 310 310 310 310 311 311 310 310 308 307 304 305 310 314 315 316 315 315 315 319 326 326 327 327 327 327 327 326 323 324 324 323 323 323 323 323 324
304 307 308 312 317 317 317 317 316 316 311 315 315 315 314 314 313 313 312 310 311 312 312 312 312 312 310 307 306 305 305 304 301 299 297 300 296 297 297 297 296 292 293 297 298 300 303 304 305 306 307 307 308 309 309 308 307 306 303 303 307 309 312 315 315 315 316 317 318 321 325 326 326 324 323 324 323 323 322 322 323 323 323 323 323
302 304 306 307 313 316 317 316 315 313 311 314 314 315 314 314 313 313 311 310 310 311 310 311 311 309 307 307 306 306 305 304 303 302 300 294 296 296 298 301 301 296 293 296 295 297 300 303 303 302 304 304 304 305 306 306 302 303 300 302 306 307 310 314 315 314 314 315 316 317 320 323 324 324 323 323 323 322 322 321 321 322 322 322 322
300 301 303 305 308 315 314 315 313 313 312 314 315 315 314 314 313 312 311 311 311 310 310 310 310 307 306 306 306 307 307 306 305 305 302 298 300 297 297 299 299 295 293 294 296 294 297 299 297 298 301 302 302 302 303 304 302 299 298 300 305 307 310 312 313 313 314 314 314 315 319 321 322 322 324 322 322 322 322 321 320 322 321 321 321
297 299 301 303 303 310 314 314 313 313 312 313 314 315 314 314 313 313 312 311 310 309 309 310 310 307 306 306 306 306 306 308 307 306 305 303 300 297 297 301 295 291 292 293 289 291 295 296 296 295 296 297 301 300 301 301 300 297 297 297 304 306 307 311 311 313 313 312 312 313 318 321 320 322 323 322 322 322 320 320 321 322 321 321 320
296 297 300 301 301 303 310 314 314 314 312 313 313 313 314 314 313 312 312 312 311 309 309 309 310 308 307 305 304 305 306 307 307 306 305 302 299 299 297 294 296 292 291 292 294 293 293 295 296 296 294 295 298 299 299 300 299 296 297 298 302 304 307 311 312 313 312 312 312 312 313 315 319 320 321 322 321 321 321 321 321 321 320 320 320
297 297 298 300 300 301 304 312 314 314 312 312 312 312 313 313 312 312 312 312 311 309 309 308 308 307 305 305 304 303 305 306 307 307 307 305 303 302 299 293 289 289 289 292 292 296 294 292 294 294 293 294 295 295 297 297 297 295 295 301 302 301 305 310 312 313 312 312 312 312 312 313 315 319 319 318 320 320 321 321 321 320 320 319 319
297 297 298 298 298 298 300 307 313 313 312 312 312 311 312 312 311 312 311 312 311 309 309 308 308 307 306 305 304 304 305 306 306 307 308 308 306 304 302 298 293 289 289 289 290 292 295 291 293 294 293 293 294 295 296 296 297 295 294 301 302 303 304 308 312 313 313 313 312 312 312 312 313 314 315 315 315 315 316 317 318 317 317 317 316
297 297 296 296 297 297 298 303 312 313 312 312 312 311 311 311 311 311 311 311 310 309 309 308 308 307 306 304 304 304 304 306 306 307 307 307 307 306 304 301 299 293 289 290 290 292 292 295 291 292 293 293 293 296 296 296 296 294 300 303 304 304 304 308 311 312 313 312 312 312 311 311 311 311 311 312 313 314 315 315 314 314 313 312 312
296 296 295 295 295 295 297 300 309 312 311 311 312 312 311 310 311 311 311 311 309 309 308 308 307 306 305 304 303 303 303 304 306 306 306 307 306 306 305 305 303 298 295 293 293 296 294 294 296 290 291 292 293 296 296 297 295 297 302 304 304 305 303 305 309 310 310 310 311 311 309 308 309 309 309 310 311 312 312 311 311 311 311 311 311
295 294 294 294 294 295 295 297 304 311 311 311 311 311 311 310 310 310 310 309 309 308 308 307 307 305 304 302 302 302 302 302 305 305 305 305 305 305 305 305 304 303 299 298 295 297 298 293 294 292 291 292 294 295 299 298 296 300 302 303 303 301 300 303 305 307 308 308 309 308 307 307 307 307 308 308 309 310 310 310 310 310 310 310 310
295 294 293 293 293 293 294 295 299 308 310 310 310 310 310 310 309 308 309 309 308 308 306 306 306 305 303 301 300 301 300 301 302 303 303 304 305 304 304 305 304 305 303 301 297 295 296 296 293 291 291 292 294 296 296 297 298 297 300 300 300 297 302 302 302 304 305 307 307 307 306 307 307 307 307 307 308 309 309 309 309 309 309 309 309
295 293 292 292 293 293 293 294 296 304 310 309 309 310 309 309 309 308 308 308 307 307 306 303 304 303 302 302 301 301 300 300 301 302 302 302 302 303 303 304 303 304 302 299 297 290 290 293 292 291 291 292 292 294 294 295 296 295 297 297 298 298 300 300 300 299 303 304 305 306 306 306 306 306 306 306 306 307 307 308 308 308 308 308 308
295 294 292 292 292 292 292 293 294 298 308 309 308 309 308 308 308 308 307 306 306 305 304 303 303 304 303 302 301 300 299 299 300 300 300 300 300 301 301 302 302 302 303 298 297 290 288 289 290 291 291 293 291 293 293 294 294 292 294 294 294 294 296 296 298 298 301 303 304 305 305 305 305 305 305 305 305 306 307 307 306 306 306 306 306
295 294 292 292 292 292 291 292 293 296 303 308 308 308 308 308 307 307 307 306 306 305 304 303 303 303 302 302 301 300 299 298 298 299 299 299 300 300 300 301 301 301 302 301 296 290 288 288 289 289 289 291 291 292 293 293 293 293 293 293 293 293 293 294 295 295 300 302 304 304 304 304 304 304 304 304 304 304 304 304 304 304 304 304 304
294 294 293 292 291 291 291 291 293 295 300 308 307 308 308 308 307 307 306 306 306 305 305 304 303 302 302 302 302 300 297 296 297 297 298 299 298 298 298 299 299 299 300 301 297 292 289 287 288 288 290 290 291 292 292 292 292 292 292 291 291 291 291 292 293 293 299 302 302 302 303 303 303 303 303 303 303 303 303 303 303 303 303 303 303
294 293 293 292 291 291 290 290 291 293 296 306 307 307 308 308 308 307 306 306 306 306 305 305 302 303 302 302 302 301 297 296 296 296 297 297 297 297 297 297 297 298 299 298 294 293 290 288 287 289 290 290 291 291 291 291 290 290 289 290 291 291 290 290 291 293 297 300 300 300 301 302 302 302 302 302 301 301 301 301 301 301 301 301 301
292 293 292 291 290 290 290 290 291 292 294 302 307 307 307 307 307 307 306 305 305 306 305 305 304 304 303 302 302 301 298 296 295 296 296 296 296 296 296 296 296 296 296 295 293 291 290 288 288 288 289 289 289 289 290 291 290 288 288 288 288 288 290 290 290 292 293 294 294 297 298 299 299 301 301 300 300 300 300 300 300 299 298 298 299
291 291 291 290 290 290 290 290 290 291 293 298 306 306 307 307 307 306 305 305 305 305 305 305 304 304 303 302 302 301 299 297 296 295 295 295 296 295 295 295 295 295 293 292 291 290 289 288 288 288 288 288 289 288 289 290 290 290 288 287 287 287 289 290 289 289 291 293 294 297 296 296 297 297 298 299 299 299 299 299 299 298 297 297 298
289 291 290 290 290 290 290 290 290 291 292 295 304 306 306 306 306 305 305 304 304 304 304 304 304 303 303 302 302 301 300 299 298 297 295 294 295 293 295 295 294 292 292 291 290 289 289 288 288 288 288 288 288 288 289 289 288 287 288 288 287 287 288 289 289 289 290 291 290 290 294 295 296 297 298 298 298 298 298 297 297 296 294 296 297
289 290 290 289 289 289 289 290 290 291 292 295 302 305 305 306 305 304 304 303 303 303 303 303 303 303 302 302 302 301 299 296 295 295 294 294 294 293 293 292 291 291 291 290 290 289 289 288 288 288 287 287 287 287 287 287 287 287 288 288 287 287 288 287 287 289 289 289 289 289 290 291 290 291 291 291 293 295 294 294 294 293 294 296 297
285 286 287 289 289 289 289 289 289 290 292 295 298 300 302 304 305 304 304 303 303 303 302 302 302 302 301 301 301 295 294 293 293 294 294 294 294 295 293 292 291 291 291 290 290 290 289 288 288 287 286 286 287 287 287 288 289 289 287 287 286 287 287 286 285 286 288 288 288 287 288 290 290 289 290 290 291 290 289 289 289 291 294 297 297
285 286 287 288 288 289 289 289 289 290 292 295 297 300 301 301 304 304 302 301 300 302 302 301 300 300 300 300 300 295 293 292 293 293 294 294 294 294 293 293 292 292 291 290 290 289 289 288 288 287 287 286 287 288 288 288 288 288 288 288 287 286 286 284 283 285 287 288 287 286 286 288 289 288 288 289 290 290 289 288 292 293 295 296 296
286 286 287 288 289 289 289 289 289 290 291 293 297 299 300 301 300 302 302 300 299 301 301 301 300 299 299 299 299 298 296 296 295 294 293 293 293 293 293 292 292 293 293 292 290 289 289 289 288 288 288 287 287 288 288 288 288 288 288 288 287 286 286 285 285 284 287 288 286 285 285 286 286 287 287 288 289 289 289 291 293 294 295 296 296
287 287 287 288 288 289 289 288 288 289 290 293 297 299 300 300 300 301 301 301 298 299 301 300 299 299 298 296 296 297 297 292 293 295 294 292 292 292 292 292 292 293 294 294 294 291 291 290 289 288 288 288 287 288 289 289 289 288 287 287 287 287 287 286 286 286 286 288 287 285 284 285 286 286 286 287 288 288 289 292 293 294 295 296 296
284 286 287 287 288 288 288 288 288 289 290 293 297 298 299 299 299 300 300 299 299 300 300 299 298 297 297 295 295 294 296 294 295 295 294 292 290 290 290 290 290 291 292 293 293 292 291 291 290 289 290 291 289 289 289 290 288 288 287 287 287 287 286 287 287 286 286 288 286 285 283 284 285 285 285 285 287 287 287 292 294 294 295 296 296
283 284 286 286 287 287 288 288 289 289 291 293 297 298 298 299 299 300 299 299 298 298 298 298 299 298 297 296 296 295 295 294 295 295 294 291 289 289 289 289 289 290 292 292 293 292 292 291 290 290 292 292 291 291 290 290 289 290 289 289 288 288 287 285 285 285 286 287 286 286 282 284 285 285 285 285 286 286 286 293 294 294 294 295 295
285 286 287 287 287 287 288 288 288 288 290 293 296 297 298 299 299 298 297 297 296 296 296 295 295 296 296 296 295 295 294 294 293 294 293 291 289 288 288 288 288 290 291 292 293 294 293 293 293 292 293 293 293 290 289 289 289 289 289 287 287 286 285 285 283 283 284 286 287 286 284 283 285 284 284 285 285 285 286 287 293 294 294 295 295
285 286 286 287 287 287 287 287 288 288 289 292 296 297 298 298 298 298 296 297 296 295 295 295 295 295 294 294 295 295 294 293 293 294 294 292 289 288 288 287 288 288 289 292 293 294 294 294 294 294 295 295 295 294 293 293 290 290 289 287 286 287 286 284 283 283 283 285 286 286 284 282 284 285 284 284 284 284 285 286 288 293 294 295 295
286 286 287 288 288 288 287 287 288 288 289 293 295 297 297 298 297 297 296 296 295 294 294 294 294 294 293 292 293 295 294 293 293 294 294 291 289 288 288 287 287 287 288 290 291 292 293 293 293 293 294 294 294 294 294 293 293 291 288 287 287 287 286 285 283 283 284 285 286 287 284 282 284 285 284 283 283 282 284 284 286 289 293 294 294
285 287 288 288 288 288 288 288 288 288 290 292 295 296 297 297 296 297 297 296 294 294 294 293 293 294 293 291 292 293 294 293 293 294 294 291 289 288 288 288 287 287 288 289 289 289 289 289 289 291 289 291 291 291 290 293 292 290 289 289 288 287 286 286 285 283 281 282 285 286 284 283 283 284 284 281 278 280 283 284 285 286 288 288 289
Wind_Speed
9 10 9 9 8 7 7 8 7 4 7 6 5 7 8 8 7 7 6 10 10 8 6 8 6 4 6 6 6 5 2 6 6 7 7 9 9 12 17 13 13 14 18 20 22 22 21 21 23 27 26 25 24 23 22 21 20 20 21 21 20 20 21 20 20 20 20 20 20 19 19 19 18 17 18 17 17 16 16 15 15 15 15 16 16
10 9 9 10 9 7 6 7 8 6 3 2 4 6 8 7 8 7 7 8 9 10 8 6 8 6 4 5 5 5 3 3 3 6 7 8 9 10 16 16 13 15 17 19 23 26 26 23 21 21 24 24 23 23 22 21 21 21 21 21 21 21 21 21 21 20 19 20 19 19 18 18 18 18 18 17 17 17 16 16 16 15 16 16 16
10 10 9 9 9 9 8 9 8 8 8 6 4 3 6 8 10 10 8 8 8 8 9 7 4 7 5 4 4 3 3 2 2 4 5 7 8 8 12 16 15 17 13 12 19 23 26 26 23 21 22 23 22 22 22 22 22 21 21 21 22 21 21 21 21 20 20 20 19 19 19 19 18 17 17 17 17 16 16 16 16 16 16 16 17
11 10 10 9 10 8 9 7 7 7 9 8 4 5 7 6 8 8 9 9 8 8 10 9 6 4 5 3 2 4 3 3 3 3 4 4 7 8 9 10 14 16 16 15 12 15 18 22 21 20 22 23 23 23 23 22 22 22 22 22 22 22 22 22 21 20 20 20 19 19 18 17 17 17 17 17 16 16 16 15 16 16 16 16 17
10 10 7 9 9 8 9 8 9 9 9 11 9 7 5 6 7 8 8 7 9 8 7 11 10 6 4 2 1 2 3 3 3 4 3 4 4 6 7 8 9 13 16 17 18 16 16 18 21 21 21 21 22 24 24 22 22 23 22 23 22 22 22 22 21 20 20 20 19 18 19 18 18 17 16 16 16 16 16 16 16 16 16 16 16
13 10 10 8 10 12 11 9 9 10 10 10 10 8 8 8 8 10 9 11 10 11 10 10 11 9 7 5 3 3 3 4 3 3 3 3 5 6 6 6 7 8 8 12 13 13 13 14 17 19 20 21 23 24 24 23 22 23 23 22 22 22 22 22 21 21 20 20 19 19 18 18 17 17 16 16 16 16 16 16 16 16 16 16 17
13 10 7 9 9 12 10 9 10 9 8 8 8 5 7 8 10 11 10 10 12 11 12 10 12 12 10 8 9 6 4 4 4 1 3 2 5 6 6 6 6 7 6 6 8 12 15 16 19 19 21 22 21 23 23 21 22 22 22 21 22 22 22 22 21 21 21 20 19 18 18 17 17 18 17 17 16 16 16 16 17 16 16 15 15
14 9 8 13 13 12 10 9 12 11 12 10 9 9 9 8 7 10 12 11 9 9 9 11 12 12 9 8 7 7 7 7 5 1 1 3 5 5 7 5 7 8 9 6 6 9 15 15 15 16 18 20 22 22 22 23 22 22 21 22 23 22 21 21 21 21 20 20 19 19 18 18 18 18 17 17 17 17 15 15 15 15 15 15 15
14 11 10 12 10 13 11 12 12 13 12 12 11 9 9 10 9 8 9 12 11 10 9 9 10 12 10 9 8 7 7 8 9 5 1 3 2 4 7 5 7 8 8 7 7 9 13 16 16 17 18 17 19 21 22 22 22 22 22 22 22 22 22 22 21 22 21 20 20 20 19 19 18 18 18 18 17 16 15 14 14 14 14 13 14
14 12 10 10 10 12 13 12 14 13 13 12 11 11 8 10 11 10 11 12 12 11 10 9 10 10 10 10 9 7 6 5 7 6 5 5 3 6 4 6 7 7 7 7 7 9 9 13 16 15 17 20 21 21 20 20 21 21 22 21 22 22 22 22 23 22 22 21 20 19 18 18 19 18 17 16 14 13 13 12 12 11 11 11 11
14 16 11 7 9 11 13 13 13 13 12 11 12 11 8 11 12 10 8 10 12 11 10 11 11 10 10 10 8 8 6 5 5 4 7 7 7 6 6 7 8 7 7 6 6 9 10 8 8 9 11 17 19 19 19 20 21 21 21 22 23 23 23 23 23 22 21 19 19 18 18 17 16 16 15 14 13 12 12 11 10 10 10 9 9
14 15 9 11 10 9 11 12 12 12 13 12 11 12 13 14 14 15 13 9 8 8 9 9 9 10 9 6 6 7 7 7 6 4 4 5 6 5 7 6 8 8 8 7 6 9 9 9 8 9 9 12 17 15 17 17 17 21 22 23 23 24 24 23 22 21 20 19 19 18 17 16 15 14 14 13 12 11 11 10 9 9 8 7 5
14 13 10 10 10 8 11 12 13 14 13 14 16 16 15 14 12 12 16 13 11 8 10 10 11 8 8 8 8 5 5 7 7 6 4 3 4 7 6 6 6 9 9 6 7 9 9 9 9 8 8 8 11 15 16 15 16 21 24 24 24 24 24 22 21 20 19 19 18 17 17 16 15 14 13 12 11 11 10 8 8 7 7 6 6
13 12 11 12 11 11 12 11 13 13 14 16 16 14 13 13 13 10 9 14 11 13 10 13 10 13 12 7 7 5 5 4 5 5 5 3 3 6 7 8 8 9 8 8 7 10 10 9 9 9 8 9 9 9 10 13 15 20 23 24 25 24 23 22 21 20 19 18 18 17 17 15 14 14 13 12 11 10 9 8 7 8 7 6 5
14 13 14 13 13 12 13 13 13 14 13 16 13 14 14 15 14 14 12 9 10 12 15 15 13 9 11 12 7 6 1 2 3 2 3 4 3 6 8 8 9 10 9 8 5 8 9 10 10 9 8 9 9 8 9 10 12 18 19 20 23 23 23 22 21 19 19 18 17 17 16 15 14 13 13 12 11 11 10 9 8 7 6 4 4
19 17 14 14 15 14 15 14 15 13 13 13 13 14 15 16 16 17 16 12 10 12 14 13 12 15 12 12 9 9 5 6 6 1 2 3 2 6 7 11 10 7 8 11 9 9 9 9 11 11 10 9 9 9 8 7 12 17 18 18 19 22 23 22 21 20 19 18 17 16 16 15 14 14 13 12 11 10 10 9 8 7 6 5 4
17 16 15 15 14 13 15 15 15 15 12 12 16 17 17 17 18 16 17 18 16 14 13 12 14 15 15 9 5 7 12 7 9 2 1 3 1 2 6 8 8 9 8 10 10 11 10 9 10 10 10 10 8 7 6 7 7 6 8 10 15 19 21 21 21 20 19 18 17 16 16 15 14 13 13 12 12 11 10 10 8 8 7 7 6
15 17 13 13 14 14 14 14 13 12 11 12 16 13 16 17 17 15 17 14 16 13 14 9 12 13 11 8 10 15 16 11 12 5 2 3 2 2 6 6 5 6 6 8 11 10 10 10 10 10 10 9 9 8 7 6 6 6 5 7 9 7 9 16 21 20 18 18 17 16 15 14 13 13 12 10 9 9 9 8 7 6 6 7 7
13 15 17 17 16 13 13 14 14 15 15 14 13 14 10 12 15 17 17 15 15 16 19 13 10 12 10 5 6 6 13 19 15 9 6 1 2 2 5 4 5 4 7 6 9 11 11 11 11 10 9 8 9 9 7 7 9 8 10 11 12 12 12 11 13 14 15 16 16 16 15 14 13 12 11 11 11 10 9 9 9 9 8 8 8
13 13 16 18 18 17 15 14 14 13 12 15 15 14 14 14 17 19 16 16 18 18 19 15 17 15 12 8 8 10 15 8 5 13 11 10 3 1 5 4 4 4 2 4 7 8 11 10 11 10 9 9 8 8 8 7 6 7 8 12 12 13 12 12 12 13 15 15 16 15 14 15 14 13 12 12 12 11 11 11 12 11 10 10 11
12 13 15 15 12 14 15 14 15 15 14 14 16 18 20 18 16 13 16 14 15 15 16 18 17 14 13 9 11 11 9 3 10 6 8 10 7 9 8 3 5 4 2 3 3 3 7 9 10 11 10 9 9 8 8 7 7 7 7 11 11 11 10 9 8 8 7 6 9 13 15 15 15 15 14 14 12 12 12 11 11 12 10 10 11
12 13 14 15 17 15 15 16 17 15 14 14 15 18 19 18 17 18 17 17 13 14 15 16 15 12 11 9 11 12 11 7 6 10 6 11 13 12 12 12 10 1 2 3 3 3 6 6 6 7 8 8 8 8 8 8 7 6 8 12 11 11 11 10 10 9 8 8 7 8 11 16 15 14 13 13 13 12 13 12 12 10 11 11 11
11 11 12 14 17 17 17 16 16 15 16 16 15 18 19 14 17 20 19 19 15 14 12 12 11 9 9 10 12 16 17 17 14 12 10 5 9 11 10 11 13 11 2 3 3 2 3 6 6 6 7 7 6 7 8 7 8 9 14 14 12 11 11 11 11 12 11 10 10 10 9 10 12 14 15 14 15 13 13 13 12 11 12 12 12
10 10 10 12 15 15 16 16 15 13 15 14 15 17 17 17 12 13 14 18 17 15 12 15 14 10 11 10 10 9 9 8 8 7 8 10 13 10 9 7 7 4 4 4 2 3 3 5 5 5 5 6 6 6 6 7 7 14 12 13 13 12 12 12 13 12 12 12 12 12 10 10 10 11 12 14 15 15 14 14 14 13 13 13 12
9 11 10 12 12 15 14 15 14 15 17 17 16 19 20 17 15 15 13 19 17 17 13 17 18 14 14 10 9 9 9 7 9 9 8 9 12 13 7 9 8 5 2 2 2 1 1 3 5 5 5 6 5 5 6 6 6 11 12 10 14 13 13 13 13 13 13 13 13 12 11 12 11 11 12 14 15 16 16 14 14 14 14 13 13
9 11 10 11 11 14 15 15 16 17 18 18 18 17 17 16 19 21 20 19 17 18 16 17 17 14 11 10 8 9 9 10 11 10 11 12 12 15 12 4 6 6 3 3 2 4 2 0 3 4 4 5 5 5 6 6 6 12 13 10 12 14 14 13 13 14 14 14 14 13 13 13 13 12 13 16 17 17 16 16 16 15 15 14 14
6 9 10 10 12 13 16 17 15 16 17 18 17 17 18 16 16 18 17 16 17 17 15 15 16 15 14 13 10 8 9 10 10 11 11 11 12 12 15 14 5 4 4 2 2 5 6 3 4 4 5 5 6 5 6 5 8 13 11 8 7 13 13 14 14 14 14 14 15 15 15 14 14 15 15 15 15 16 18 18 17 16 15 16 15
5 7 9 9 11 13 15 17 17 16 17 18 18 17 19 18 18 18 17 14 17 19 16 16 16 18 16 12 11 10 9 10 10 9 10 11 11 12 10 15 15 7 3 5 3 5 7 6 2 3 5 5 5 5 5 6 6 13 10 6 6 8 13 14 14 14 15 15 15 15 16 16 16 16 15 14 15 15 15 15 15 14 12 11 12
5 5 8 9 10 11 13 17 18 16 17 19 20 19 20 18 17 18 18 16 16 18 15 16 16 14 14 15 13 11 10 10 10 10 10 10 12 13 14 14 14 15 8 8 7 8 6 8 7 6 6 6 6 5 6 5 8 11 7 6 7 7 11 14 15 15 15 16 15 15 16 15 15 14 14 14 14 14 13 13 13 15 17 18 17
5 5 7 8 10 12 13 15 15 17 18 19 19 20 20 18 20 20 18 17 17 15 15 15 15 13 14 14 11 11 10 10 12 12 11 11 12 13 13 13 14 15 12 12 11 9 9 8 7 5 6 6 6 5 5 4 11 13 7 6 8 7 14 15 15 15 16 16 17 17 16 16 17 17 17 17 17 17 16 16 16 17 17 17 17
5 6 6 7 8 10 12 14 15 16 18 19 19 18 20 17 18 17 18 17 17 16 16 16 14 13 13 15 13 12 11 11 12 12 12 12 12 13 13 12 13 14 14 12 10 9 9 10 6 5 9 7 6 5 4 4 11 12 6 6 6 12 15 12 15 15 16 17 18 18 18 18 18 18 18 17 17 17 17 16 16 16 16 16 17
5 6 5 7 8 10 11 12 15 16 17 19 19 19 18 17 17 16 16 19 18 18 15 14 14 14 15 15 15 13 12 11 12 12 13 13 13 13 13 13 13 12 14 13 13 10 9 11 7 7 9 9 7 8 6 5 10 9 5 5 9 14 9 7 13 15 16 17 18 18 18 19 19 19 18 17 17 16 16 16 16 16 17 17 18
5 6 5 6 7 9 11 11 13 16 18 16 17 18 17 18 17 18 17 19 18 16 16 15 14 16 16 17 16 15 13 14 13 12 12 12 11 11 11 12 13 12 12 10 10 7 3 3 8 9 10 10 8 7 9 9 7 5 7 7 10 8 8 7 7 12 15 16 17 18 18 18 18 18 18 17 17 17 16 18 17 16 18 19 19
7 7 5 5 6 8 11 12 13 15 16 18 17 16 18 19 20 16 16 19 20 18 17 18 16 15 17 17 16 15 14 16 15 14 13 12 12 12 12 12 11 11 10 9 8 10 9 5 6 6 9 10 9 7 11 12 8 6 8 7 5 6 7 6 7 7 15 16 17 18 18 18 18 17 17 17 16 16 17 18 16 16 17 18 18
6 7 5 5 6 8 10 12 13 14 16 16 18 19 18 19 20 19 19 21 21 20 20 20 19 17 17 17 17 16 13 15 15 14 13 13 12 13 13 11 12 12 11 11 8 8 11 8 8 10 10 9 8 10 7 7 8 9 9 8 7 5 5 7 7 6 13 16 17 18 18 17 16 17 17 17 17 16 17 17 17 16 17 17 18
7 5 5 5 5 8 10 11 13 13 16 16 15 18 20 20 20 21 19 20 20 21 21 20 19 19 19 18 17 17 15 17 15 14 13 13 13 12 12 11 11 12 11 11 9 9 9 12 8 10 9 10 6 7 7 7 9 8 7 6 6 7 6 5 6 6 11 16 17 17 17 17 17 16 17 17 17 17 17 17 16 16 16 16 16
7 6 5 5 5 7 9 10 13 13 15 16 18 19 19 20 21 21 21 21 21 21 21 21 20 21 20 20 19 18 17 18 16 15 14 15 13 12 12 11 10 10 9 10 9 10 11 11 9 6 8 5 6 9 10 12 8 6 5 7 8 7 6 5 5 6 12 16 15 16 16 17 17 17 18 17 17 17 18 17 17 16 15 16 16
9 8 5 6 5 8 9 10 11 13 14 16 18 20 20 20 19 20 20 21 21 21 20 20 21 20 20 20 19 19 19 20 18 17 15 16 14 13 13 11 10 9 10 9 10 9 11 11 12 10 8 10 9 8 10 11 13 10 7 5 5 5 8 7 5 5 5 6 6 9 12 13 16 18 18 18 18 18 18 18 17 16 15 15 15
11 10 8 8 6 7 9 10 12 13 14 16 17 19 20 19 19 19 19 20 20 19 20 21 21 21 20 19 19 19 20 20 19 18 17 17 15 16 15 13 11 10 9 8 10 11 11 11 9 11 11 6 10 12 8 7 8 11 15 10 7 4 5 9 8 4 5 6 6 10 10 9 12 11 15 17 18 18 18 18 17 16 15 16 16
13 11 9 9 8 8 9 10 11 11 13 17 17 18 19 19 19 19 18 19 20 20 21 21 20 20 20 19 19 20 20 19 19 18 17 17 14 13 13 13 13 11 11 9 10 11 11 11 12 11 9 13 7 5 8 9 8 5 7 12 15 12 9 6 7 10 6 7 7 5 7 10 10 12 15 14 16 18 17 15 16 16 16 16 16
9 10 10 11 12 10 10 10 11 11 13 15 15 16 18 20 19 20 19 19 20 19 19 19 18 19 18 18 18 19 19 21 23 20 20 18 16 15 13 12 12 12 11 10 11 11 11 11 10 9 10 9 11 14 12 12 15 17 12 8 8 7 8 8 5 5 8 10 6 7 7 7 7 7 7 7 8 12 12 13 12 15 15 16 17
16 16 15 12 11 10 10 11 10 11 13 13 17 23 23 20 20 18 18 18 19 19 19 18 17 17 17 16 15 21 22 21 21 22 22 22 20 17 16 14 14 14 14 13 13 13 13 13 13 13 13 13 13 15 17 16 12 9 11 10 12 10 8 6 3 3 5 9 10 9 7 6 8 7 7 8 7 9 7 9 8 10 14 17 17
15 15 14 13 11 9 11 11 11 11 12 14 21 25 26 28 21 18 18 17 17 19 19 20 19 18 16 16 14 17 19 19 19 22 22 23 21 18 15 16 16 18 17 16 15 15 15 14 13 14 15 16 16 16 16 15 13 16 16 14 13 12 13 14 12 5 5 8 8 9 8 6 7 9 8 7 8 8 8 8 13 16 17 18 18
15 13 14 12 11 10 10 11 11 12 13 18 23 25 29 28 24 20 18 16 16 17 18 19 18 18 18 16 14 12 14 18 17 15 18 21 21 19 17 16 17 17 17 18 19 15 15 15 15 15 15 16 16 14 12 12 13 12 11 11 13 16 14 13 11 15 12 13 11 9 7 5 4 6 7 7 8 7 8 11 18 17 19 19 19
12 12 12 10 10 10 11 12 12 12 12 18 23 25 30 30 29 24 16 18 17 17 17 17 17 18 17 15 14 13 13 23 19 17 15 15 18 20 16 17 17 18 19 17 15 16 18 19 19 18 18 16 17 15 16 20 18 18 15 12 11 12 13 15 13 10 10 14 10 10 11 9 8 8 8 6 8 7 9 14 19 18 19 19 19
15 13 11 11 10 10 11 12 11 12 13 18 22 25 30 30 30 25 17 18 18 19 19 19 17 17 17 16 16 14 14 16 16 17 16 15 13 12 11 11 12 15 17 20 20 17 14 11 14 17 16 16 18 20 20 20 20 18 18 17 16 14 15 16 9 6 7 13 15 12 8 9 8 8 9 7 8 8 7 11 19 19 19 19 18
15 14 12 11 10 10 11 11 10 12 13 20 21 25 28 30 30 26 16 16 15 15 16 17 19 19 18 17 18 17 17 18 16 18 17 15 15 15 13 12 12 12 14 15 15 13 12 9 10 11 15 14 17 18 17 15 21 22 24 24 23 18 9 7 8 8 8 8 6 9 11 11 7 8 8 8 8 8 5 10 19 19 20 19 19
13 12 12 10 10 9 10 10 11 13 13 21 21 25 29 28 30 19 14 16 15 15 14 14 13 12 13 16 17 16 16 17 21 26 22 17 18 18 17 14 12 11 13 14 17 17 16 15 14 15 14 15 14 11 12 13 10 5 9 10 10 10 10 10 7 7 10 11 10 10 6 9 9 9 7 6 7 8 7 6 14 20 19 19 19
13 12 11 9 8 9 10 10 11 12 13 17 20 27 29 31 26 16 15 14 14 14 14 12 14 15 14 13 14 16 17 17 22 27 26 23 18 21 18 17 14 12 12 10 15 18 18 18 16 15 14 13 13 15 20 20 14 12 10 10 10 10 12 11 7 7 10 12 10 8 6 9 10 9 8 7 7 7 7 8 8 14 20 19 19
12 11 9 8 8 8 9 11 11 12 13 15 20 27 29 31 27 19 15 15 14 14 12 12 11 12 15 24 19 15 16 18 25 27 27 23 18 19 18 18 16 15 13 10 8 9 12 14 13 14 13 14 16 20 23 23 22 16 15 16 16 14 14 14 15 14 8 11 13 10 7 9 10 7 7 4 4 3 5 5 8 8 14 14 18
13 9 7 7 7 7 8 10 14 15 13 13 19 27 30 30 25 16 15 13 14 13 12 12 11 11 11 16 23 20 18 18 26 27 28 24 19 19 20 19 18 18 15 13 13 11 9 7 5 7 6 12 13 13 16 25 24 20 16 17 15 14 14 13 10 8 5 6 10 10 9 7 12 9 10 8 3 2 4 5 7 7 7 7 8
Wind_Direction
233 214 203 205 205 205 194 167 176 188 188 177 167 147 141 138 129 128 117 115 110 97 80 90 81 81 106 111 118 119 137 152 151 136 138 139 141 149 150 154 156 161 159 162 152 145 146 146 148 144 141 143 143 141 145 147 148 143 143 141 143 142 135 134 131 128 131 131 130 129 130 129 128 126 127 126 123 121 113 114 113 111 109 105 102
226 219 209 203 201 192 170 148 175 172 237 185 174 163 149 143 128 123 123 125 121 126 111 90 105 83 59 101 101 110 119 126 151 130 134 134 135 144 146 152 160 153 162 163 152 149 146 148 151 147 144 144 146 146 148 147 148 147 144 144 145 142 136 136 132 134 134 134 132 130 131 129 127 128 128 127 124 118 119 119 115 110 106 104 103
232 226 211 201 194 195 187 173 160 168 174 184 183 171 161 150 143 139 132 129 129 120 110 96 79 104 94 77 100 98 120 113 83 120 113 115 127 142 149 155 161 157 157 169 152 153 152 151 155 150 148 144 147 149 148 149 148 148 146 146 144 143 141 136 136 137 136 134 132 131 133 134 132 129 126 125 120 117 116 114 113 109 107 106 105
237 214 218 195 195 182 185 157 163 183 174 176 166 184 175 157 133 126 128 130 136 133 134 126 104 75 84 83 52 118 125 96 100 103 114 108 123 137 151 161 167 156 160 163 170 160 159 150 151 148 152 150 149 146 148 151 149 147 147 146 144 143 140 138 138 138 137 136 136 135 129 128 128 126 127 121 122 120 115 114 111 112 113 110 106
231 221 219 200 181 171 185 163 172 191 167 162 162 176 156 139 132 140 142 127 134 137 142 133 127 121 97 81 39 55 80 93 84 96 99 130 124 122 137 151 154 154 152 159 172 178 161 152 152 154 154 153 152 151 150 152 151 148 151 148 145 144 142 141 141 141 140 140 137 132 129 132 135 138 134 129 125 121 120 118 117 117 115 110 106
237 217 209 203 185 182 186 170 170 176 163 154 165 175 164 157 148 147 151 151 152 153 148 150 137 137 141 150 130 136 110 91 86 95 105 140 135 130 131 132 143 143 144 150 144 148 148 148 152 154 155 153 152 151 149 152 151 149 151 148 147 146 144 143 142 140 141 141 139 138 135 137 136 128 123 123 121 120 122 123 121 118 116 112 108
245 234 207 230 195 185 184 178 168 162 149 163 166 159 160 155 162 154 156 159 161 160 155 157 141 148 157 158 160 161 139 108 84 14 116 129 127 141 129 133 138 127 126 125 132 137 141 145 151 152 151 151 152 150 148 154 152 152 153 151 150 150 146 144 143 144 144 142 138 138 138 135 133 131 129 129 129 127 124 122 120 118 115 111 106
244 233 225 217 191 182 182 174 170 162 160 169 163 176 166 155 172 156 154 162 166 170 163 155 149 145 151 156 156 154 154 134 122 202 120 138 130 150 140 143 135 135 134 136 137 133 133 139 142 148 151 151 152 152 155 155 156 155 156 156 152 147 147 145 143 140 140 139 139 137 136 136 134 134 134 132 131 126 122 119 118 115 114 111 110
234 233 219 225 198 182 177 179 169 169 164 169 173 176 174 157 160 170 159 159 170 169 165 162 154 148 148 152 157 154 155 152 143 144 63 140 152 142 139 141 130 132 130 131 134 136 139 146 148 152 148 148 150 156 157 152 158 160 161 157 148 148 148 147 145 144 143 142 141 139 137 136 136 137 135 133 129 127 124 122 118 115 114 113 110
227 228 218 231 218 185 180 171 170 175 168 167 170 172 173 160 160 163 168 162 168 168 161 159 152 148 149 151 156 152 143 136 131 136 158 154 202 153 155 134 128 129 133 135 135 136 145 152 151 153 150 148 149 153 155 157 160 164 161 156 152 152 150 147 144 144 143 142 140 139 139 139 139 137 136 134 131 128 124 120 117 115 114 112 111
217 227 225 219 227 196 181 166 171 174 169 159 164 168 166 172 164 159 161 168 167 168 161 156 150 146 146 147 147 132 130 124 110 146 155 164 171 157 152 146 143 142 139 136 138 145 152 151 143 144 151 154 151 157 163 165 166 165 158 158 156 152 148 145 145 143 142 140 139 138 139 139 137 137 135 133 130 127 127 123 121 121 119 114 114
216 223 214 207 222 203 179 167 173 175 164 165 160 161 172 174 172 163 162 155 165 156 152 141 134 129 110 85 85 116 132 123 133 157 155 158 159 152 150 157 149 148 149 146 140 150 148 147 141 142 150 156 150 159 160 163 164 163 162 160 154 151 147 146 145 143 141 140 140 140 139 137 135 135 134 133 133 133 132 133 129 129 126 122 123
216 218 200 207 215 199 178 178 178 177 170 171 166 172 171 170 172 169 163 158 160 153 153 143 127 100 100 93 72 58 94 118 144 149 161 142 168 154 151 153 156 153 158 150 149 149 149 145 144 142 147 146 149 154 156 157 164 166 162 159 154 150 148 148 146 144 144 143 143 142 140 138 138 139 139 139 140 140 140 138 139 133 135 136 127
228 208 207 205 204 198 181 184 183 178 174 174 173 161 162 171 162 157 173 161 160 161 158 145 156 154 141 120 86 69 51 85 133 146 143 148 185 153 156 157 160 161 156 152 154 154 152 148 146 145 145 144 150 157 157 159 170 167 162 158 155 153 152 151 149 147 147 147 146 145 144 143 145 147 149 151 150 149 146 149 150 152 149 149 149
244 222 211 207 205 197 186 184 189 183 171 173 165 164 165 167 167 163 162 166 155 166 167 175 154 149 134 118 157 128 51 76 22 62 126 147 195 159 155 159 167 162 160 155 155 153 151 150 147 147 149 151 156 157 157 165 171 169 165 161 159 157 157 156 154 152 153 153 152 151 151 152 153 156 158 158 158 158 159 164 169 168 168 174 169
245 225 222 210 201 197 192 183 189 188 175 163 166 168 167 170 172 168 158 151 165 174 181 177 156 150 161 172 152 144 136 221 148 62 359 105 229 170 150 164 174 168 158 159 163 155 153 150 148 150 153 154 156 158 159 164 169 169 168 167 161 161 160 159 158 156 157 156 156 156 158 161 163 164 165 166 167 170 174 175 178 183 177 189 194
272 240 219 211 200 197 193 188 188 189 177 165 170 172 173 171 172 169 171 166 167 165 183 190 179 182 149 119 113 173 194 151 131 51 48 128 347 202 141 146 161 167 167 164 161 156 153 154 148 149 153 151 142 128 123 136 133 118 124 144 163 166 164 162 161 161 162 161 161 161 164 168 170 170 172 175 179 183 185 190 187 188 182 193 194
291 263 229 217 211 196 200 189 186 180 181 169 174 168 173 176 174 166 176 175 160 162 176 199 186 203 189 169 176 176 157 159 154 165 2 10 36 287 134 136 126 158 169 169 157 155 158 155 150 149 149 144 141 134 137 133 124 126 129 146 144 142 161 168 165 164 166 166 165 167 171 173 178 178 180 182 185 192 197 200 196 190 197 195 175
291 284 249 218 215 208 200 196 187 181 172 172 176 172 170 173 172 173 175 172 164 169 177 182 183 212 191 148 101 88 138 151 173 107 147 193 48 259 112 99 119 127 157 168 157 158 162 156 151 148 143 142 145 143 142 140 139 140 146 148 152 158 166 171 176 178 176 174 175 176 179 183 186 189 187 185 192 188 184 185 187 183 188 192 187
303 300 275 237 212 208 200 191 192 186 179 173 170 173 168 177 183 179 172 174 175 177 178 173 181 194 184 131 110 129 147 140 112 161 151 141 157 300 64 79 98 73 58 135 152 163 156 155 149 149 146 146 144 144 142 142 140 143 149 159 157 160 161 168 171 175 181 183 177 175 178 182 185 184 182 174 180 176 179 184 170 168 171 160 145
309 305 299 266 226 202 196 191 190 184 180 181 174 171 174 175 181 178 175 181 184 183 176 180 186 182 170 150 128 134 145 102 128 128 151 152 160 173 138 77 85 72 54 42 19 119 151 151 152 153 151 148 148 146 147 149 150 154 155 168 169 167 163 162 166 167 172 194 192 183 173 175 182 180 181 189 174 172 168 163 161 159 152 148 145
312 312 316 296 242 215 203 196 196 186 181 183 177 170 173 177 176 180 177 176 183 185 188 185 181 181 177 153 145 143 149 144 160 154 142 166 163 172 153 150 147 131 45 78 49 47 121 117 139 145 147 147 149 150 152 154 157 155 162 170 172 173 170 171 173 180 186 194 203 212 208 185 190 189 190 183 177 174 166 165 163 166 161 157 152
310 309 311 310 274 225 207 203 195 188 183 181 180 175 172 170 177 178 179 178 178 184 190 182 175 164 169 171 164 166 173 175 171 167 153 132 142 155 157 162 155 147 217 73 61 40 115 136 145 153 155 153 151 150 154 159 157 160 160 170 172 175 177 177 179 184 189 195 198 207 227 221 200 192 193 192 190 186 177 176 170 163 164 157 154
307 309 311 318 305 251 217 205 195 186 188 184 180 178 174 173 171 174 176 180 179 178 183 180 179 163 170 173 174 164 153 150 148 154 151 149 152 148 145 129 105 95 124 111 65 91 118 140 143 152 155 153 158 156 154 154 163 157 160 173 172 176 181 183 186 186 190 195 200 206 212 204 187 187 196 190 191 186 182 182 173 163 161 156 153
313 307 309 315 316 288 231 205 196 190 186 184 185 180 172 174 173 173 167 179 181 178 181 182 179 173 176 174 156 158 159 149 151 152 137 141 146 144 159 153 137 112 111 131 137 353 43 122 141 150 149 148 157 159 158 160 157 164 160 174 173 178 183 187 186 187 190 195 199 201 202 187 176 178 185 186 185 183 181 173 162 160 163 155 157
305 300 308 312 306 303 277 229 196 188 188 187 181 178 179 178 182 181 180 180 178 178 182 189 182 169 163 165 155 159 154 159 162 158 153 153 157 157 149 108 114 138 110 137 140 127 258 282 147 155 148 160 159 165 163 166 158 169 166 163 178 178 184 185 183 188 190 194 194 192 188 175 172 176 180 182 181 172 168 165 164 159 160 160 158
287 297 303 305 305 302 297 251 209 191 187 185 181 175 177 177 184 186 181 179 179 180 180 181 180 167 168 173 164 157 158 164 167 167 163 160 156 156 149 136 106 108 140 106 134 216 154 156 177 167 172 164 164 178 169 177 162 170 166 159 170 184 183 184 185 187 188 187 185 183 177 171 173 175 175 175 166 164 161 161 164 164 159 159 157
273 289 299 302 302 303 300 278 231 196 182 182 183 179 181 180 181 183 183 179 178 179 179 178 183 173 168 166 160 168 164 164 169 172 170 158 155 152 162 149 147 150 142 147 166 216 155 157 159 189 175 172 174 173 177 156 153 170 169 158 163 178 184 182 180 179 177 174 171 169 166 165 164 161 159 154 148 149 152 159 162 157 149 129 120
265 280 293 300 299 300 297 290 243 206 185 184 183 184 184 185 180 182 184 177 177 180 176 178 179 175 164 166 169 167 168 165 168 174 171 167 166 167 167 167 160 148 159 170 195 182 182 183 167 193 177 170 166 175 169 167 155 162 175 162 164 169 180 174 169 168 164 159 155 152 151 148 143 137 133 131 131 130 125 115 109 110 112 120 124
262 279 286 293 300 300 302 296 264 215 188 186 186 183 183 186 184 183 183 175 176 177 179 177 175 172 167 165 163 166 170 170 176 176 178 174 171 175 175 175 167 163 167 170 188 193 177 188 186 152 173 176 165 167 172 156 159 166 173 163 164 169 167 165 163 158 152 147 144 141 137 131 128 125 123 121 119 118 115 117 119 122 126 132 139
246 269 278 293 298 299 301 300 287 238 197 187 186 185 182 186 184 183 179 175 175 178 179 174 174 170 169 169 171 171 172 176 177 177 180 178 177 179 180 180 182 172 165 175 172 199 171 177 177 150 163 167 155 150 158 144 165 174 162 157 165 153 155 158 154 149 145 143 140 136 133 131 129 127 125 124 123 123 123 127 130 134 139 144 145
229 254 263 285 297 301 301 301 298 259 213 189 184 184 183 185 182 186 177 177 178 179 176 175 170 173 171 175 176 176 177 175 181 182 183 183 178 180 184 181 184 181 175 173 180 168 173 177 146 144 156 154 156 153 146 139 167 175 148 140 138 139 145 145 147 144 142 140 137 135 133 132 131 130 130 129 129 130 131 134 140 147 149 149 147
239 249 260 277 294 296 297 298 299 276 220 197 184 182 182 181 179 186 177 178 180 180 175 176 175 173 175 177 180 180 176 179 185 182 183 182 178 179 180 181 184 189 177 178 172 132 59 112 138 150 156 151 160 165 146 151 153 134 125 131 141 142 137 138 138 140 139 137 136 135 134 133 132 133 133 133 135 137 141 146 149 150 150 150 148
234 249 252 272 288 298 300 300 297 295 252 200 183 183 183 182 183 180 178 180 181 179 177 177 177 177 179 179 180 181 182 184 184 186 183 180 181 177 182 182 184 188 184 172 167 149 148 133 125 129 147 163 147 168 160 156 151 132 134 140 136 135 138 134 135 143 140 139 136 136 135 135 134 134 135 137 138 140 146 147 145 147 149 148 146
231 233 249 258 285 296 298 297 298 294 277 222 187 181 185 183 182 182 179 181 182 180 181 181 179 177 180 183 182 180 179 185 189 187 183 185 182 183 181 181 182 184 184 181 153 156 151 155 151 149 161 167 164 163 163 150 138 138 136 141 136 127 127 137 137 140 147 141 140 137 137 137 136 138 139 141 142 144 144 146 147 149 151 149 149
242 215 229 245 267 288 292 295 296 294 285 234 199 187 185 183 183 182 180 181 182 183 184 183 179 177 183 185 185 180 179 186 187 187 189 185 183 183 180 182 179 180 179 179 161 150 157 145 168 162 166 157 146 142 133 129 135 136 138 123 115 122 126 126 134 140 149 143 142 141 141 140 139 139 143 144 145 145 144 146 147 148 147 149 148
239 233 221 235 259 276 284 292 294 291 290 249 204 191 188 186 184 182 180 182 184 184 183 183 181 181 183 187 186 180 178 185 186 188 187 186 184 181 183 179 178 175 173 172 155 147 149 152 146 151 151 141 139 145 149 141 134 114 110 128 137 132 121 118 119 136 143 142 142 143 143 143 143 141 142 143 144 146 148 147 148 148 147 146 145
257 241 214 243 246 267 276 284 285 288 288 271 219 191 188 186 185 183 181 182 184 183 183 183 183 184 185 188 184 182 181 185 187 187 183 183 181 183 182 180 176 170 171 161 148 150 149 151 149 146 160 149 145 156 164 151 144 136 122 104 97 118 130 127 132 139 141 143 145 142 142 143 145 145 146 146 148 150 151 153 151 149 148 147 147
267 260 243 247 244 256 271 279 283 287 289 281 237 197 186 184 184 182 180 181 183 183 184 185 185 186 187 186 185 182 184 187 183 183 182 181 183 184 182 177 174 168 169 162 153 149 149 146 156 157 151 154 153 152 161 152 145 151 147 139 132 150 144 144 139 135 136 130 133 142 145 145 146 146 149 151 152 153 154 156 154 153 152 151 150
270 261 260 258 261 258 266 270 277 283 283 280 250 203 184 182 182 183 182 182 182 184 185 185 186 187 186 187 188 187 187 185 184 183 179 181 182 183 182 175 173 168 168 161 152 152 151 153 155 161 159 151 141 125 131 136 133 135 174 160 160 164 165 161 160 152 149 137 138 131 136 137 141 144 149 152 156 159 158 156 156 155 156 156 155
279 275 274 272 271 265 261 262 273 276 275 271 256 209 186 182 182 182 181 182 183 184 185 185 187 187 187 188 189 189 186 185 184 181 184 179 176 182 185 177 171 169 168 161 159 157 157 155 155 151 149 153 153 151 159 167 172 176 173 160 146 146 143 145 162 165 156 147 142 138 151 156 143 151 153 155 162 158 157 157 157 158 159 159 159
278 277 278 269 263 258 263 266 265 271 270 269 251 217 191 183 183 182 182 182 182 183 183 184 186 186 187 189 190 183 183 182 182 183 182 181 184 182 178 175 173 172 172 165 166 166 162 164 163 160 160 165 167 171 169 183 173 134 140 155 155 158 141 137 127 187 171 154 150 159 168 166 153 153 162 164 167 161 163 161 169 164 164 163 164
267 269 264 258 252 251 254 262 266 265 268 266 255 214 199 184 180 181 181 181 181 184 185 182 183 184 185 188 185 181 179 182 184 183 181 182 178 178 179 184 183 176 171 171 173 168 170 171 168 168 171 171 176 175 179 166 160 164 171 169 160 155 164 162 174 177 204 172 163 155 168 179 163 164 170 169 167 168 169 172 166 167 168 167 168
264 261 258 246 245 246 253 256 259 261 266 267 260 215 194 187 181 179 180 180 181 186 188 185 182 181 182 183 182 176 179 184 186 183 182 181 178 177 177 181 192 194 190 178 170 171 173 170 172 178 171 176 174 176 170 161 167 170 170 162 165 171 173 181 172 181 185 171 161 161 161 173 169 165 172 175 173 177 174 169 171 171 172 171 171
259 252 252 245 239 242 248 255 259 261 265 265 261 215 196 185 182 178 180 180 180 187 186 184 181 180 179 178 178 180 182 180 181 182 176 180 182 179 172 176 189 194 191 197 196 183 174 173 174 178 181 173 172 183 176 175 171 168 166 171 176 181 183 182 186 173 152 170 155 159 168 177 176 174 179 176 173 178 176 179 176 175 175 175 174
267 262 254 248 244 242 247 251 259 264 262 267 255 214 194 185 181 179 179 181 184 186 186 183 182 181 178 176 177 179 175 177 184 181 178 175 174 172 172 177 184 195 196 192 185 182 183 186 180 183 188 175 179 182 185 171 163 167 170 181 179 177 185 194 179 151 149 165 172 159 150 176 185 171 180 174 166 178 181 175 173 177 178 178 177
253 253 252 250 245 242 248 250 256 261 262 262 249 209 194 185 181 180 178 181 183 187 188 186 185 180 178 177 178 174 173 177 182 181 177 175 171 173 172 177 183 189 193 191 189 185 181 190 192 199 189 189 189 183 174 172 174 176 179 180 177 179 156 81 61 115 147 177 157 148 176 178 177 173 182 166 166 173 172 175 174 177 180 180 181
255 251 249 243 243 244 246 253 255 260 261 260 240 206 191 183 179 180 177 179 181 185 188 189 184 179 179 176 174 174 174 178 180 179 178 170 171 170 173 176 182 190 198 199 192 185 182 187 189 190 187 190 184 164 166 174 171 119 73 74 85 104 130 154 142 153 163 189 189 175 149 171 184 179 168 154 154 168 170 172 181 178 182 183 185
247 245 245 240 239 241 248 250 255 258 261 256 232 202 189 183 177 180 177 179 181 181 185 183 183 178 177 182 185 177 176 179 180 179 176 168 172 173 172 174 180 186 197 196 202 196 188 189 188 186 182 181 150 149 166 171 165 156 138 132 154 155 160 165 161 157 184 179 201 198 152 163 182 178 152 158 166 164 171 174 179 184 185 186 187
256 244 241 244 240 242 246 255 254 259 259 253 224 198 187 182 177 178 176 177 178 180 180 181 184 184 181 177 183 183 181 181 180 181 175 169 172 173 171 171 176 187 194 188 182 190 193 191 185 176 172 176 160 162 169 170 167 161 160 172 173 169 180 179 179 186 169 182 192 182 150 184 161 163 127 115 119 187 178 172 175 187 186 189 191
263 265 254 251 251 248 249 255 259 253 252 248 222 196 183 180 178 176 174 174 176 178 175 178 187 185 184 185 184 182 183 181 178 181 176 172 173 173 173 172 180 188 191 177 175 172 176 175 164 150 163 172 164 166 173 173 172 172 178 176 165 175 181 190 179 137 122 211 203 184 176 147 159 175 144 125 174 209 170 175 174 178 183 179 186